01/09/2026 / 05/09/2026
| Fecha / Hora | Descripción | Porcentaje Nubes | Temperatura | Humedad | Viento | |
| martes 01/09/2026 00:00 hs | lluvia ligera | 51 % | 25.4 ° | 84 % | 11.7 Km/h | |
| martes 01/09/2026 03:00 hs | lluvia ligera | 42 % | 25.4 ° | 85 % | 10.5 Km/h | |
| martes 01/09/2026 06:00 hs | lluvia ligera | 17 % | 25 ° | 84 % | 9.7 Km/h | |
| martes 01/09/2026 09:00 hs | lluvia ligera | 0 % | 27.3 ° | 71 % | 14 Km/h | |
| martes 01/09/2026 12:00 hs | lluvia ligera | 1 % | 28 ° | 67 % | 13.4 Km/h | |
| martes 01/09/2026 15:00 hs | cielo claro | 0 % | 27.1 ° | 69 % | 11.3 Km/h | |
| martes 01/09/2026 18:00 hs | lluvia ligera | 1 % | 25.1 ° | 85 % | 13.5 Km/h | |
| martes 01/09/2026 21:00 hs | lluvia ligera | 1 % | 24.9 ° | 85 % | 13.3 Km/h | |
| miércoles 02/09/2026 00:00 hs | cielo claro | 0 % | 24.6 ° | 83 % | 13 Km/h | |
| miércoles 02/09/2026 03:00 hs | cielo claro | 4 % | 24.2 ° | 84 % | 11.6 Km/h | |
| miércoles 02/09/2026 06:00 hs | lluvia ligera | 28 % | 24.5 ° | 83 % | 13.4 Km/h | |
| miércoles 02/09/2026 09:00 hs | algo de nubes | 20 % | 26.9 ° | 69 % | 13.2 Km/h | |
| miércoles 02/09/2026 12:00 hs | cielo claro | 9 % | 27.4 ° | 67 % | 20.6 Km/h | |
| miércoles 02/09/2026 15:00 hs | cielo claro | 7 % | 27 ° | 66 % | 17.6 Km/h | |
| miércoles 02/09/2026 18:00 hs | cielo claro | 4 % | 24.6 ° | 78 % | 13.7 Km/h | |
| miércoles 02/09/2026 21:00 hs | cielo claro | 3 % | 24.6 ° | 81 % | 16.1 Km/h | |
| jueves 03/09/2026 00:00 hs | algo de nubes | 12 % | 24 ° | 85 % | 14.2 Km/h | |
| jueves 03/09/2026 03:00 hs | lluvia ligera | 23 % | 24.2 ° | 81 % | 15.8 Km/h | |
| jueves 03/09/2026 06:00 hs | lluvia ligera | 93 % | 24.4 ° | 80 % | 16 Km/h | |
| jueves 03/09/2026 09:00 hs | lluvia ligera | 96 % | 25.9 ° | 73 % | 14.7 Km/h | |
| jueves 03/09/2026 12:00 hs | lluvia ligera | 100 % | 26.8 ° | 68 % | 13 Km/h | |
| jueves 03/09/2026 15:00 hs | nubes | 97 % | 26.7 ° | 68 % | 13 Km/h | |
| jueves 03/09/2026 18:00 hs | lluvia ligera | 91 % | 25.3 ° | 81 % | 9.9 Km/h | |
| jueves 03/09/2026 21:00 hs | lluvia ligera | 49 % | 25 ° | 85 % | 10.8 Km/h | |
| viernes 04/09/2026 00:00 hs | lluvia ligera | 11 % | 24.7 ° | 86 % | 17 Km/h | |
| viernes 04/09/2026 03:00 hs | lluvia ligera | 10 % | 24.4 ° | 86 % | 16.8 Km/h | |
| viernes 04/09/2026 06:00 hs | lluvia ligera | 72 % | 24.8 ° | 83 % | 18.8 Km/h | |
| viernes 04/09/2026 09:00 hs | lluvia ligera | 70 % | 26.4 ° | 73 % | 16.8 Km/h | |
| viernes 04/09/2026 12:00 hs | lluvia ligera | 36 % | 27 ° | 65 % | 16.4 Km/h | |
| viernes 04/09/2026 15:00 hs | muy nuboso | 64 % | 26.5 ° | 67 % | 11.2 Km/h | |
| viernes 04/09/2026 18:00 hs | muy nuboso | 61 % | 24.9 ° | 80 % | 13.7 Km/h | |
| viernes 04/09/2026 21:00 hs | lluvia ligera | 40 % | 25 ° | 83 % | 16.7 Km/h | |
| sábado 05/09/2026 00:00 hs | cielo claro | 0 % | 24.8 ° | 80 % | 16.1 Km/h | |
| sábado 05/09/2026 03:00 hs | cielo claro | 0 % | 24.2 ° | 78 % | 9.9 Km/h | |
| sábado 05/09/2026 06:00 hs | cielo claro | 0 % | 24.6 ° | 77 % | 11.7 Km/h | |
| sábado 05/09/2026 09:00 hs | cielo claro | 1 % | 26.9 ° | 65 % | 16.8 Km/h | |
| sábado 05/09/2026 12:00 hs | cielo claro | 3 % | 27.3 ° | 64 % | 16.3 Km/h | |
| sábado 05/09/2026 15:00 hs | cielo claro | 1 % | 26.6 ° | 67 % | 13.5 Km/h | |
| sábado 05/09/2026 18:00 hs | cielo claro | 0 % | 24.7 ° | 78 % | 11.6 Km/h | |
| sábado 05/09/2026 21:00 hs | cielo claro | 1 % | 24.6 ° | 81 % | 12.2 Km/h |
Fuente: Open Weather Map
Marea ALTA: 01:04 miércoles 27 de noviembre 2024
Marea BAJA: 07:18 miércoles 27 de noviembre 2024
Marea ALTA: 13:38 miércoles 27 de noviembre 2024
Marea BAJA: 19:51 miércoles 27 de noviembre 2024
Marea ALTA: 01:53 jueves 28 de noviembre 2024
Marea BAJA: 08:07 jueves 28 de noviembre 2024
Marea ALTA: 14:18 jueves 28 de noviembre 2024
Marea BAJA: 20:32 jueves 28 de noviembre 2024
IMPORTANTE: La información de las Mareas es APROXIMADA basada en predicciones, con precisión para ocio y turismo, no para fines profesionales
Ver artículos sobre Clima en Brasil
Ver Resumen sobre el clima en Brasil en cada región
© 2009 / 2026 - BrasilPlayas.com
Diseño y desarrollo: ArraialWebDesign
Los artículos publicados en esta web son propiedad intelectual de sus respectivos autores, que se reservan todos los derechos sobre los mismos
Las imágenes contenidas en este sitio están sujetas a la respectiva licencia y acreditación que las acompaña
Este website usa Cookies. Saber más sobre nuestra política de Cookies